Location: Unspecified
(0.0000°N, 0.0000°E)
Time: 03:13:42
(UTC+02:00)

Delta 168 - Visible Passes

Search period start: 29 August 2014 00:00
Search period end: 08 September 2014 00:00
Orbit: 395 x 2118 km, 25.3° (Epoch: 25 August)

Date Brightness Start Highest point End Pass type
(mag) Time Alt. Az. Time Alt. Az. Time Alt. Az.
29 Aug 4.0 06:54:25 23° NW 06:55:20 25° NNW 06:58:11 10° NNE visible
29 Aug 6.8 20:40:45 10° WSW 20:51:07 30° SSW 21:01:49 10° SE visible
29 Aug 6.9 22:45:21 10° SW 22:53:33 19° S 22:53:57 19° S visible
30 Aug 4.4 06:52:09 19° NW 06:52:48 19° NNW 06:55:26 10° NNE visible
30 Aug 6.9 20:38:39 10° WSW 20:48:32 27° SSW 20:58:51 10° SE visible
30 Aug 6.9 22:43:01 10° SW 22:51:11 19° S 22:51:25 19° S visible
31 Aug 4.8 06:49:51 15° NW 06:50:16 15° NNW 06:52:34 10° N visible
31 Aug 6.9 20:36:37 10° WSW 20:46:00 25° SSW 20:55:54 10° SE visible
31 Aug 6.9 22:40:34 10° SW 22:48:49 19° S 22:48:51 19° S visible
01 Sep 5.1 06:47:30 12° NW 06:47:44 12° NNW 06:49:29 10° N visible
01 Sep 7.0 20:34:36 10° WSW 20:43:30 23° S 20:52:59 10° SE visible
01 Sep 6.9 22:38:00 10° SW 22:46:15 19° S 22:46:15 19° S visible
02 Sep 5.4 06:45:07 10° NNW 06:45:12 10° NNW 06:45:38 10° NNW visible
02 Sep 7.0 20:32:36 10° SW 20:41:04 21° S 20:50:08 10° SE visible
02 Sep 6.8 22:35:19 10° SW 22:43:38 20° S 22:43:38 20° S visible
03 Sep 7.0 20:30:34 10° SW 20:38:39 20° S 20:47:21 10° SE visible
03 Sep 6.8 22:32:31 10° SW 22:40:59 22° S 22:40:59 22° S visible
04 Sep 7.0 20:28:29 10° SW 20:36:15 19° S 20:44:40 10° SE visible
04 Sep 6.7 22:29:39 10° SW 22:38:20 23° S 22:38:20 23° S visible
05 Sep 7.0 20:26:19 10° SW 20:33:51 19° S 20:42:04 10° SE visible
05 Sep 6.7 22:26:42 10° SW 22:35:40 25° S 22:35:40 25° S visible
06 Sep 6.9 20:24:02 10° SW 20:31:27 19° S 20:39:35 10° SE visible
06 Sep 6.6 22:23:43 10° SW 22:33:01 27° S 22:33:01 27° S visible
07 Sep 7.5 00:23:12 10° SW 00:23:35 11° SW 00:23:35 11° SW visible
07 Sep 6.9 20:21:39 10° SSW 20:29:02 19° S 20:37:12 10° SE visible
07 Sep 6.4 22:20:41 10° SW 22:30:22 30° S 22:30:22 30° S visible
